Weather History for West Vancouver, BC

Change the Weather History Date:

Wednesday, March 20, 2013

  Actual Average Record
Temperature  
Mean Temperature 44 °F -  
Max Temperature 53 °F - - ()
Min Temperature 36 °F - - ()
Degree Days  
Heating Degree Days 20    
Moisture  
Dew Point 40 °F    
Average Humidity 85    
Maximum Humidity 94    
Minimum Humidity 65    
Precipitation  
Precipitation 0.39 in - - ()
Sea Level Pressure  
Sea Level Pressure 29.51 in    
Wind  
Wind Speed 5 mph ()    
Max Wind Speed 8 mph    
Max Gust Speed 18 mph    
T = Trace of Precipitation, MM = Missing Value Source: Averaged Metar Reports

Daily Weather History Graph

Daily Weather History Graph

Search for Another Location

Airport:

Trip Planner

Search our weather history database for the weather conditions in past years. The results will help you decide how hot, cold, wet, or windy it might be!

Date:

Astronomy

Mar. 20, 2013 Rise Set
Actual Time 7:14 AM PDT 7:26 PM PDT
Civil Twilight 6:43 AM PDT 7:58 PM PDT
Nautical Twilight 6:05 AM PDT 8:35 PM PDT
Astronomical Twilight 5:26 AM PDT 9:14 PM PDT
Moon 12:37 PM PDT (3/20) 3:27 AM PDT (3/20)
Length of Visible Light 13h 15m
Length of Day
12h 11m
First Quarter, 60% of the Moon is Illuminated
Mar 20
First Quarter
Mar 27
Full
Apr 2
Last Quarter
Apr 10
New
Apr 18
First Quarter

Hourly Weather History & Observations

Time (PDT) Temp. Windchill Dew Point Humidity Pressure Visibility Wind Dir Wind Speed Gust Speed Precip Events Conditions
12:00 AM 43.2 °F 38.4 °F 38.8 °F 85% 29.57 in - ENE 8.1 mph - 0.05 in   Unknown
1:00 AM 43.3 °F 39.2 °F 39.9 °F 88% 29.51 in - ENE 6.9 mph - 0.07 in   Unknown
2:00 AM 44.2 °F 40.3 °F 40.6 °F 87% 29.48 in - East 6.9 mph - 0.07 in   Unknown
3:00 AM 44.2 °F 39.7 °F 41.0 °F 88% 29.46 in - ENE 8.1 mph - 0.05 in   Unknown
4:00 AM 44.4 °F 40.0 °F 41.4 °F 89% 29.42 in - ENE 8.1 mph - 0.05 in   Unknown
5:00 AM 44 °F - 42 °F 88% 29.39 in - ENE 8.1 mph - -  
5:00 AM 44.4 °F 40.0 °F 41.5 °F 90% 29.39 in - ENE 8.1 mph - 0.07 in   Unknown
6:00 AM 44.6 °F 40.7 °F 42.1 °F 91% 29.36 in - East 6.9 mph - 0.07 in   Unknown
7:00 AM 45.1 °F 41.4 °F 42.8 °F 91% 29.32 in - ENE 6.9 mph - 0.11 in   Unknown
8:00 AM 45.5 °F 41.3 °F 43.0 °F 91% 29.30 in - ENE 8.1 mph 18.4 mph 0.05 in   Unknown
9:00 AM 45.3 °F 42.3 °F 43.5 °F 93% 29.31 in - ENE 5.8 mph - 0.04 in   Unknown
10:00 AM 45.5 °F 43.2 °F 43.9 °F 94% 29.33 in - East 4.6 mph - 0.02 in   Unknown
11:00 AM 48 °F - 46 °F 88% 29.36 in - East 2.3 mph - -  
11:00 AM 47.7 °F - 45.5 °F 92% 29.36 in - East 2.3 mph - N/A   Unknown
12:00 PM 52.7 °F - 44.2 °F 73% 29.38 in - South 2.3 mph - N/A   Unknown
1:00 PM 52.3 °F - 41.0 °F 65% 29.42 in - South 2.3 mph - N/A   Unknown
2:00 PM 48.9 °F - 39.9 °F 71% 29.45 in - SSW 3.5 mph - N/A   Unknown
3:00 PM 46.4 °F - 35.8 °F 67% 29.46 in - SSW 2.3 mph - N/A   Unknown
4:00 PM 45.7 °F - 36.9 °F 71% 29.49 in - SSW 1.2 mph - N/A   Unknown
5:00 PM 42 °F - 37 °F 77% 29.54 in - West 2.3 mph - -  
5:00 PM 41.9 °F - 37.2 °F 83% 29.54 in - West 2.3 mph - 0.02 in   Unknown
6:00 PM 39.6 °F 35.4 °F 37.0 °F 91% 29.60 in - WNW 5.8 mph - 0.02 in   Unknown
7:00 PM 38.8 °F 35.4 °F 36.3 °F 91% 29.66 in - WNW 4.6 mph - 0.03 in   Unknown
8:00 PM 38.7 °F 36.3 °F 35.8 °F 89% 29.71 in - WNW 3.5 mph - 0.04 in   Unknown
9:00 PM 38.1 °F 34.6 °F 35.1 °F 89% 29.77 in - WNW 4.6 mph - 0.02 in   Unknown
10:00 PM 36.0 °F 32.1 °F 33.6 °F 91% 29.83 in - WNW 4.6 mph - N/A   Unknown
11:00 PM 36 °F - 33 °F 83% 29.87 in - NW 5.8 mph - -  
11:00 PM 36.0 °F 31.1 °F 31.3 °F 83% 29.87 in - NW 5.8 mph - N/A   Unknown